Weather History for Belmar-Farmingdale, NJ

Change the Weather History Date:

Monday, February 18, 2013

  Actual Average Record
Temperature  
Mean Temperature 26 °F -  
Max Temperature 35 °F 41 °F 66 °F (2011)
Min Temperature 17 °F 27 °F 17 °F (2001)
Degree Days  
Heating Degree Days 39    
Moisture  
Dew Point 5 °F    
Average Humidity 40    
Maximum Humidity 49    
Minimum Humidity 30    
Precipitation  
Precipitation 0.00 in - - ()
Sea Level Pressure  
Sea Level Pressure 30.19 in    
Wind  
Wind Speed 16 mph (West)    
Max Wind Speed 23 mph    
Max Gust Speed 36 mph    
Visibility 10 miles    
Events      
Averages and records for this station are not official NWS values.
T = Trace of Precipitation, MM = Missing Value Source: NWS Daily Summary

Daily Weather History Graph

Daily Weather History Graph

Search for Another Location

Airport:

Trip Planner

Search our weather history database for the weather conditions in past years. The results will help you decide how hot, cold, wet, or windy it might be!

Date:

Astronomy

Feb. 18, 2013 Rise Set
Actual Time 6:45 AM EST 5:35 PM EST
Civil Twilight 6:17 AM EST 6:03 PM EST
Nautical Twilight 5:46 AM EST 6:35 PM EST
Astronomical Twilight 5:14 AM EST 7:06 PM EST
Moon 11:19 AM EST 1:22 AM EST
Length of Visible Light 11h 45m
Length of Day
10h 50m
First Quarter, 58% of the Moon is Illuminated
Feb 18
First Quarter
Feb 25
Full
Mar 4
Last Quarter
Mar 11
New
Mar 19
First Quarter

Hourly Weather History & Observations

Time (EST) Temp. Windchill Dew Point Humidity Pressure Visibility Wind Dir Wind Speed Gust Speed Precip Events Conditions
12:15 AM 19.4 °F 2.8 °F -0.4 °F 42% 30.02 in 10.0 mi NW 21.9 mph 35.7 mph N/A   Clear
12:35 AM 19.4 °F 3.2 °F -0.4 °F 42% 30.03 in 10.0 mi WNW 20.7 mph 28.8 mph N/A   Clear
12:55 AM 19.4 °F 5.0 °F -0.4 °F 42% 30.03 in 10.0 mi WNW 16.1 mph 32.2 mph N/A   Clear
1:15 AM 19.4 °F 4.1 °F -0.4 °F 42% 30.04 in 10.0 mi WNW 18.4 mph 33.4 mph N/A   Clear
1:35 AM 19.4 °F 3.2 °F 1.4 °F 46% 30.05 in 10.0 mi WNW 20.7 mph 31.1 mph N/A   Clear
1:55 AM 19.4 °F 4.1 °F -0.4 °F 42% 30.05 in 10.0 mi WNW 18.4 mph 29.9 mph N/A   Clear
2:15 AM 19.4 °F 3.6 °F -0.4 °F 42% 30.06 in 10.0 mi WNW 19.6 mph 27.6 mph N/A   Clear
2:35 AM 19.4 °F 4.1 °F -0.4 °F 42% 30.06 in 10.0 mi WNW 18.4 mph 26.5 mph N/A   Clear
2:55 AM 19.4 °F 2.5 °F -0.4 °F 42% 30.07 in 10.0 mi WNW 23.0 mph 29.9 mph N/A   Clear
3:15 AM 19.4 °F 3.6 °F -0.4 °F 42% 30.07 in 10.0 mi WNW 19.6 mph 28.8 mph N/A   Clear
3:35 AM 17.6 °F 1.7 °F -0.4 °F 45% 30.08 in 10.0 mi WNW 18.4 mph 29.9 mph N/A   Clear
3:55 AM 17.6 °F 0.9 °F -0.4 °F 45% 30.08 in 10.0 mi WNW 20.7 mph 32.2 mph N/A   Clear
4:15 AM 17.6 °F 0.9 °F -0.4 °F 45% 30.10 in 10.0 mi WNW 20.7 mph 29.9 mph N/A   Clear
4:55 AM 17.6 °F 2.2 °F -0.4 °F 45% 30.12 in 10.0 mi WNW 17.3 mph 23.0 mph N/A   Clear
5:15 AM 17.6 °F 1.7 °F -0.4 °F 45% 30.14 in 10.0 mi WNW 18.4 mph 28.8 mph N/A   Clear
5:35 AM 17.6 °F 1.3 °F -0.4 °F 45% 30.15 in 10.0 mi WNW 19.6 mph 23.0 mph N/A   Clear
5:55 AM 17.6 °F 0.9 °F -0.4 °F 45% 30.15 in 10.0 mi WNW 20.7 mph 25.3 mph N/A   Clear
6:15 AM 17.6 °F 1.7 °F -0.4 °F 45% 30.16 in 10.0 mi WNW 18.4 mph 26.5 mph N/A   Clear
6:35 AM 17.6 °F 2.7 °F 1.4 °F 49% 30.17 in 10.0 mi WNW 16.1 mph 27.6 mph N/A   Clear
6:55 AM 17.6 °F 2.7 °F 1.4 °F 49% 30.19 in 10.0 mi WNW 16.1 mph 23.0 mph N/A   Clear
7:15 AM 17.6 °F 2.7 °F 1.4 °F 49% 30.21 in 10.0 mi WNW 16.1 mph 25.3 mph N/A   Clear
7:35 AM 17.6 °F 1.7 °F 1.4 °F 49% 30.21 in 10.0 mi WNW 18.4 mph 25.3 mph N/A   Clear
7:55 AM 19.4 °F 4.1 °F 1.4 °F 46% 30.22 in 10.0 mi WNW 18.4 mph 24.2 mph N/A   Clear
8:15 AM 19.4 °F 4.1 °F 1.4 °F 46% 30.23 in 10.0 mi NW 18.4 mph 26.5 mph N/A   Clear
8:35 AM 19.4 °F 4.5 °F 1.4 °F 46% 30.24 in 10.0 mi NW 17.3 mph 24.2 mph N/A   Clear
8:55 AM 21.2 °F 7.3 °F 1.4 °F 42% 30.24 in 10.0 mi NW 16.1 mph - N/A   Clear
9:15 AM 21.2 °F 7.3 °F 3.2 °F 46% 30.25 in 10.0 mi WNW 16.1 mph - N/A   Clear
9:35 AM 23.0 °F 11.7 °F 3.2 °F 43% 30.26 in 10.0 mi WNW 11.5 mph 19.6 mph N/A   Clear
9:55 AM 24.8 °F 14.6 °F 3.2 °F 40% 30.26 in 10.0 mi WNW 10.4 mph 24.2 mph N/A   Clear
10:15 AM 24.8 °F 12.4 °F 3.2 °F 40% 30.26 in 10.0 mi WNW 15.0 mph 21.9 mph N/A   Clear
10:35 AM 26.6 °F 14.3 °F 3.2 °F 37% 30.26 in 10.0 mi NW 16.1 mph - N/A   Clear
10:55 AM 26.6 °F 15.2 °F 5.0 °F 40% 30.26 in 10.0 mi West 13.8 mph 20.7 mph N/A   Clear
11:15 AM 28.4 °F 17.0 °F 3.2 °F 34% 30.27 in 10.0 mi WNW 15.0 mph 18.4 mph N/A   Clear
11:35 AM 28.4 °F 15.8 °F 5.0 °F 37% 30.26 in 10.0 mi WNW 18.4 mph - N/A   Clear
11:55 AM 30.2 °F 18.9 °F 5.0 °F 34% 30.25 in 10.0 mi West 16.1 mph 23.0 mph N/A   Clear
12:15 PM 30.2 °F 17.8 °F 6.8 °F 37% 30.25 in 10.0 mi West 19.6 mph 25.3 mph N/A   Clear
12:35 PM 30.2 °F 19.8 °F 6.8 °F 37% 30.24 in 10.0 mi West 13.8 mph 20.7 mph N/A   Clear
12:55 PM 32.0 °F 21.2 °F 5.0 °F 32% 30.23 in 10.0 mi West 16.1 mph 19.6 mph N/A   Clear
1:15 PM 32.0 °F 21.6 °F 5.0 °F 32% 30.23 in 10.0 mi WNW 15.0 mph 19.6 mph N/A   Clear
1:35 PM 33.8 °F 22.8 °F 6.8 °F 32% 30.21 in 10.0 mi West 18.4 mph 23.0 mph N/A   Clear
1:55 PM 33.8 °F 23.5 °F 6.8 °F 32% 30.21 in 10.0 mi WNW 16.1 mph 19.6 mph N/A   Clear
2:15 PM 33.8 °F 24.8 °F 6.8 °F 32% 30.20 in 10.0 mi West 12.7 mph 17.3 mph N/A   Clear
2:35 PM 35.6 °F 27.1 °F 6.8 °F 30% 30.20 in 10.0 mi WNW 12.7 mph 19.6 mph N/A   Clear
2:55 PM 35.6 °F 27.5 °F 6.8 °F 30% 30.20 in 10.0 mi West 11.5 mph - N/A   Clear
3:15 PM 35.6 °F 27.5 °F 6.8 °F 30% 30.20 in 10.0 mi WNW 11.5 mph 21.9 mph N/A   Clear
3:35 PM 35.6 °F 28.0 °F 6.8 °F 30% 30.20 in 10.0 mi West 10.4 mph - N/A   Clear
3:55 PM 35.6 °F 28.0 °F 6.8 °F 30% 30.20 in 10.0 mi West 10.4 mph 16.1 mph N/A   Clear
4:15 PM 35.6 °F 27.5 °F 6.8 °F 30% 30.21 in 10.0 mi West 11.5 mph 18.4 mph N/A   Clear
4:35 PM 35.6 °F 28.0 °F 6.8 °F 30% 30.21 in 10.0 mi West 10.4 mph - N/A   Clear
4:55 PM 35.6 °F 28.0 °F 6.8 °F 30% 30.21 in 10.0 mi West 10.4 mph 18.4 mph N/A   Clear
5:15 PM 35.6 °F 29.9 °F 6.8 °F 30% 30.21 in 10.0 mi West 6.9 mph - N/A   Clear
5:35 PM 33.8 °F 28.6 °F 8.6 °F 35% 30.21 in 10.0 mi West 5.8 mph - N/A   Clear
5:55 PM 33.8 °F 27.7 °F 8.6 °F 35% 30.22 in 10.0 mi West 6.9 mph - N/A   Clear
6:35 PM 32.0 °F 26.4 °F 8.6 °F 38% 30.23 in 10.0 mi WSW 5.8 mph - N/A   Clear
6:55 PM 30.2 °F 24.3 °F 8.6 °F 40% 30.24 in 10.0 mi WSW 5.8 mph - N/A   Clear
7:15 PM 30.2 °F 24.3 °F 8.6 °F 40% 30.23 in 10.0 mi WSW 5.8 mph - N/A   Clear
7:35 PM 30.2 °F 25.4 °F 8.6 °F 40% 30.23 in 10.0 mi WSW 4.6 mph - N/A   Clear
7:55 PM 30.2 °F 24.3 °F 8.6 °F 40% 30.23 in 10.0 mi WSW 5.8 mph - N/A   Clear
8:15 PM 30.2 °F 24.3 °F 8.6 °F 40% 30.24 in 10.0 mi WSW 5.8 mph - N/A   Clear
8:35 PM 30.2 °F 24.3 °F 10.4 °F 44% 30.23 in 10.0 mi WSW 5.8 mph - N/A   Clear
8:55 PM 30.2 °F 23.4 °F 10.4 °F 44% 30.23 in 10.0 mi SW 6.9 mph - N/A   Clear
9:15 PM 30.2 °F 23.4 °F 10.4 °F 44% 30.23 in 10.0 mi SW 6.9 mph - N/A   Clear
9:35 PM 30.2 °F 24.3 °F 8.6 °F 40% 30.23 in 10.0 mi SW 5.8 mph - N/A   Clear
9:55 PM 30.2 °F 23.4 °F 10.4 °F 44% 30.24 in 10.0 mi SW 6.9 mph - N/A   Clear
10:15 PM 30.2 °F 25.4 °F 10.4 °F 44% 30.24 in 10.0 mi South 4.6 mph - N/A   Clear
10:35 PM 30.2 °F 25.4 °F 10.4 °F 44% 30.23 in 10.0 mi SSW 4.6 mph - N/A   Clear
10:55 PM 28.4 °F 23.3 °F 10.4 °F 47% 30.23 in 10.0 mi SW 4.6 mph - N/A   Clear
11:15 PM 30.2 °F 26.7 °F 10.4 °F 44% 30.22 in 10.0 mi South 3.5 mph - N/A   Clear
11:35 PM 28.4 °F 23.3 °F 10.4 °F 47% 30.22 in 10.0 mi South 4.6 mph - N/A   Clear
11:55 PM 28.4 °F 22.2 °F 10.4 °F 47% 30.22 in 10.0 mi South 5.8 mph - N/A   Clear